Opotiki Weather Station Historical Data
Version 3.4b - 01-Dec-2017
Daily Summary for November 8, 2018 Units:  Metric    English   Both
« Previous Day
Next Day »
Daily Weekly Monthly Yearly Custom
  High: Low: Average:
Temperature: 21.8 °C 16.8 °C 18.5 °C
Dew Point: 17.7 °C 15.3 °C 16.3 °C
Humidity: 95% 73% 88%
Wind Speed: 8.7km/h 0.0km/h 2.5km/h
Wind Gust: 19.5km/h - -
Wind- - SSE
Pressure: 1017.3 hPa 1014.2 hPa -
Precipitation: 0.0 mm    
Historical Graphs
 
 
Tabular Data for November 8, 2018
Time Temperature Dew Point Pressure Wind Wind Speed Wind Gust Humidity Rain Rate (Hrly) Rain Day
00:04 17.1 °C 15.4 °C 1017.3 hPa NNE 2.6 km/h 7.2 km/h 90% 0.0 mm 0.0mm
00:14 17.0 °C 15.3 °C 1017.2 hPa North 2.6 km/h 8.7 km/h 90% 0.0 mm 0.0mm
00:18 17.0 °C 15.3 °C 1017.0 hPa NNE 2.6 km/h 6.1 km/h 90% 0.0 mm 0.0mm
00:24 17.0 °C 15.3 °C 1017.0 hPa NNE 2.6 km/h 7.2 km/h 90% 0.0 mm 0.0mm
00:30 17.0 °C 15.3 °C 1016.8 hPa NNE 1.1 km/h 7.2 km/h 90% 0.0 mm 0.0mm
00:34 17.0 °C 15.3 °C 1016.9 hPa NNE 2.6 km/h 6.1 km/h 90% 0.0 mm 0.0mm
00:40 17.0 °C 15.3 °C 1016.9 hPa NE 2.6 km/h 6.1 km/h 90% 0.0 mm 0.0mm
00:44 17.1 °C 15.4 °C 1017.1 hPa NNE 1.1 km/h 5.0 km/h 90% 0.0 mm 0.0mm
00:50 17.1 °C 15.6 °C 1017.0 hPa Calm   6.1 km/h 91% 0.0 mm 0.0mm
00:54 17.1 °C 15.6 °C 1016.9 hPa NE 2.6 km/h 6.1 km/h 91% 0.0 mm 0.0mm
01:00 17.1 °C 15.6 °C 1016.7 hPa NNE 1.1 km/h 7.2 km/h 91% 0.0 mm 0.0mm
01:04 17.1 °C 15.6 °C 1016.7 hPa North 1.1 km/h 7.2 km/h 91% 0.0 mm 0.0mm
01:10 17.1 °C 15.6 °C 1016.7 hPa NE 3.5 km/h 8.7 km/h 91% 0.0 mm 0.0mm
01:12 17.1 °C 15.4 °C 1016.6 hPa NE 1.1 km/h 8.7 km/h 90% 0.0 mm 0.0mm
01:18 17.1 °C 15.4 °C 1016.6 hPa NE 1.1 km/h 8.7 km/h 90% 0.0 mm 0.0mm
01:24 17.1 °C 15.4 °C 1016.9 hPa NNE 2.6 km/h 5.0 km/h 90% 0.0 mm 0.0mm
01:32 17.1 °C 15.4 °C 1016.8 hPa Calm   5.0 km/h 90% 0.0 mm 0.0mm
01:38 17.1 °C 15.4 °C 1016.8 hPa North 1.1 km/h 5.0 km/h 90% 0.0 mm 0.0mm
01:42 17.1 °C 15.3 °C 1017.0 hPa Calm   5.0 km/h 89% 0.0 mm 0.0mm
01:50 17.1 °C 15.3 °C 1017.2 hPa NNE 2.6 km/h 6.1 km/h 89% 0.0 mm 0.0mm
01:54 17.1 °C 15.3 °C 1017.1 hPa NNE 2.6 km/h 6.1 km/h 89% 0.0 mm 0.0mm
02:00 17.1 °C 15.3 °C 1016.8 hPa NNE 2.6 km/h 5.0 km/h 89% 0.0 mm 0.0mm
02:02 17.1 °C 15.3 °C 1016.9 hPa Calm   5.0 km/h 89% 0.0 mm 0.0mm
02:08 17.1 °C 15.3 °C 1017.0 hPa NNW 1.1 km/h 3.5 km/h 89% 0.0 mm 0.0mm
02:12 17.1 °C 15.3 °C 1016.9 hPa North 1.1 km/h 6.1 km/h 89% 0.0 mm 0.0mm
02:18 17.1 °C 15.3 °C 1016.9 hPa NNE 1.1 km/h 7.2 km/h 89% 0.0 mm 0.0mm
02:30 17.1 °C 15.3 °C 1016.9 hPa North 1.1 km/h 5.0 km/h 89% 0.0 mm 0.0mm
02:34 17.1 °C 15.3 °C 1016.9 hPa NE 2.6 km/h 6.1 km/h 89% 0.0 mm 0.0mm
02:40 17.1 °C 15.3 °C 1016.8 hPa NE 1.1 km/h 6.1 km/h 89% 0.0 mm 0.0mm
02:44 17.1 °C 15.3 °C 1016.6 hPa NNE 2.6 km/h 3.5 km/h 89% 0.0 mm 0.0mm
02:50 17.1 °C 15.3 °C 1016.9 hPa North 2.6 km/h 5.0 km/h 89% 0.0 mm 0.0mm
03:00 17.1 °C 15.4 °C 1016.9 hPa NE 2.6 km/h 6.1 km/h 90% 0.0 mm 0.0mm
03:04 17.1 °C 15.4 °C 1016.7 hPa NE 2.6 km/h 6.1 km/h 90% 0.0 mm 0.0mm
03:14 17.1 °C 15.4 °C 1016.8 hPa North 2.6 km/h 5.0 km/h 90% 0.0 mm 0.0mm
03:18 17.1 °C 15.4 °C 1016.8 hPa Calm   3.5 km/h 90% 0.0 mm 0.0mm
03:24 17.1 °C 15.4 °C 1016.7 hPa North 1.1 km/h 5.0 km/h 90% 0.0 mm 0.0mm
03:30 17.0 °C 15.3 °C 1016.6 hPa NNW 1.1 km/h 3.5 km/h 90% 0.0 mm 0.0mm
03:34 17.0 °C 15.3 °C 1016.5 hPa NNE 2.6 km/h 5.0 km/h 90% 0.0 mm 0.0mm
03:40 17.0 °C 15.6 °C 1016.6 hPa NNE 1.1 km/h 6.1 km/h 91% 0.0 mm 0.0mm
03:42 17.0 °C 15.6 °C 1016.7 hPa NNE 1.1 km/h 6.1 km/h 91% 0.0 mm 0.0mm
03:50 17.0 °C 15.6 °C 1016.5 hPa North 1.1 km/h 5.0 km/h 91% 0.0 mm 0.0mm
03:54 17.0 °C 15.6 °C 1016.5 hPa Calm   3.5 km/h 91% 0.0 mm 0.0mm
03:58 17.0 °C 15.6 °C 1016.5 hPa NNE 2.6 km/h 3.5 km/h 91% 0.0 mm 0.0mm
04:04 17.0 °C 15.7 °C 1016.4 hPa NNE 1.1 km/h 5.0 km/h 92% 0.0 mm 0.0mm
04:06 17.0 °C 15.7 °C 1016.4 hPa NNE 2.6 km/h 5.0 km/h 92% 0.0 mm 0.0mm
04:14 17.0 °C 15.7 °C 1016.4 hPa NNE 2.6 km/h 5.0 km/h 92% 0.0 mm 0.0mm
04:20 17.0 °C 15.7 °C 1016.2 hPa NNE 1.1 km/h 5.0 km/h 92% 0.0 mm 0.0mm
04:24 17.0 °C 15.7 °C 1016.1 hPa NE 3.5 km/h 6.1 km/h 92% 0.0 mm 0.0mm
04:26 17.0 °C 15.7 °C 1016.3 hPa NNE 2.6 km/h 6.1 km/h 92% 0.0 mm 0.0mm
04:32 17.0 °C 15.7 °C 1015.9 hPa North 2.6 km/h 6.1 km/h 92% 0.0 mm 0.0mm
04:40 16.9 °C 15.9 °C 1015.8 hPa Calm   5.0 km/h 94% 0.0 mm 0.0mm
04:44 16.9 °C 15.9 °C 1015.9 hPa Calm   5.0 km/h 94% 0.0 mm 0.0mm
04:50 16.9 °C 15.9 °C 1015.9 hPa North 1.1 km/h 5.0 km/h 94% 0.0 mm 0.0mm
04:52 16.9 °C 15.9 °C 1015.7 hPa North 1.1 km/h 5.0 km/h 94% 0.0 mm 0.0mm
05:00 16.9 °C 15.9 °C 1015.8 hPa Calm   5.0 km/h 94% 0.0 mm 0.0mm
05:04 16.9 °C 15.9 °C 1015.7 hPa North 1.1 km/h 5.0 km/h 94% 0.0 mm 0.0mm
05:10 16.9 °C 15.9 °C 1015.7 hPa North 1.1 km/h 6.1 km/h 94% 0.0 mm 0.0mm
05:14 16.9 °C 15.9 °C 1015.6 hPa Calm   6.1 km/h 94% 0.0 mm 0.0mm
05:20 16.9 °C 15.9 °C 1015.6 hPa Calm   2.6 km/h 94% 0.0 mm 0.0mm
05:24 16.9 °C 15.9 °C 1015.5 hPa North 2.6 km/h 3.5 km/h 94% 0.0 mm 0.0mm
05:30 16.9 °C 15.9 °C 1015.4 hPa Calm   3.5 km/h 94% 0.0 mm 0.0mm
05:32 16.9 °C 15.9 °C 1015.6 hPa Calm   3.5 km/h 94% 0.0 mm 0.0mm
05:40 16.8 °C 15.8 °C 1015.4 hPa North 1.1 km/h 3.5 km/h 94% 0.0 mm 0.0mm
05:42 16.8 °C 15.8 °C 1015.4 hPa Calm   5.0 km/h 94% 0.0 mm 0.0mm
05:50 16.9 °C 15.9 °C 1015.4 hPa North 1.1 km/h 6.1 km/h 94% 0.0 mm 0.0mm
06:00 16.9 °C 16.1 °C 1015.3 hPa North 2.6 km/h 5.0 km/h 95% 0.0 mm 0.0mm
06:06 16.9 °C 16.1 °C 1015.4 hPa NNE 1.1 km/h 5.0 km/h 95% 0.0 mm 0.0mm
06:14 16.9 °C 16.1 °C 1015.2 hPa NNE 1.1 km/h 8.7 km/h 95% 0.0 mm 0.0mm
06:20 17.0 °C 16.1 °C 1015.3 hPa Calm   8.7 km/h 94% 0.0 mm 0.0mm
06:22 17.0 °C 16.1 °C 1015.3 hPa NE 1.1 km/h 6.1 km/h 94% 0.0 mm 0.0mm
06:30 17.0 °C 16.1 °C 1015.4 hPa NNE 1.1 km/h 5.0 km/h 94% 0.0 mm 0.0mm
06:34 17.1 °C 16.1 °C 1015.4 hPa NNE 3.5 km/h 5.0 km/h 94% 0.0 mm 0.0mm
06:40 17.1 °C 16.3 °C 1015.5 hPa NE 1.1 km/h 5.0 km/h 95% 0.0 mm 0.0mm
06:42 17.1 °C 16.3 °C 1015.5 hPa NNE 1.1 km/h 5.0 km/h 95% 0.0 mm 0.0mm
06:48 17.2 °C 16.4 °C 1015.4 hPa NNE 2.6 km/h 6.1 km/h 95% 0.0 mm 0.0mm
07:00 17.3 °C 16.5 °C 1015.2 hPa NNE 1.1 km/h 7.2 km/h 95% 0.0 mm 0.0mm
07:04 17.4 °C 16.6 °C 1015.1 hPa NE 3.5 km/h 7.2 km/h 95% 0.0 mm 0.0mm
07:10 17.4 °C 16.6 °C 1015.1 hPa NNE 1.1 km/h 7.2 km/h 95% 0.0 mm 0.0mm
07:12 17.4 °C 16.6 °C 1014.9 hPa NNE 2.6 km/h 6.1 km/h 95% 0.0 mm 0.0mm
07:20 17.6 °C 16.8 °C 1015.2 hPa NNE 1.1 km/h 9.7 km/h 95% 0.0 mm 0.0mm
07:30 17.8 °C 16.8 °C 1015.2 hPa NE 2.6 km/h 7.2 km/h 94% 0.0 mm 0.0mm
07:34 17.8 °C 16.8 °C 1015.4 hPa North 2.6 km/h 7.2 km/h 94% 0.0 mm 0.0mm
07:38 17.9 °C 16.9 °C 1015.3 hPa North 1.1 km/h 7.2 km/h 94% 0.0 mm 0.0mm
07:50 18.2 °C 17.2 °C 1015.4 hPa North 1.1 km/h 5.0 km/h 94% 0.0 mm 0.0mm
07:52 18.3 °C 17.3 °C 1015.6 hPa North 2.6 km/h 5.0 km/h 94% 0.0 mm 0.0mm
07:58 18.5 °C 17.3 °C 1015.7 hPa North 2.6 km/h 5.0 km/h 93% 0.0 mm 0.0mm
08:04 18.3 °C 17.0 °C 1015.9 hPa NNE 2.6 km/h 6.1 km/h 92% 0.0 mm 0.0mm
08:06 18.3 °C 17.0 °C 1015.8 hPa NNE 3.5 km/h 7.2 km/h 92% 0.0 mm 0.0mm
08:14 18.3 °C 17.0 °C 1016.0 hPa NNE 1.1 km/h 7.2 km/h 92% 0.0 mm 0.0mm
08:20 18.4 °C 17.1 °C 1016.0 hPa NNW 1.1 km/h 3.5 km/h 92% 0.0 mm 0.0mm
08:24 18.5 °C 17.2 °C 1016.2 hPa North 1.1 km/h 5.0 km/h 92% 0.0 mm 0.0mm
08:30 18.7 °C 17.4 °C 1016.0 hPa NNE 2.6 km/h 5.0 km/h 92% 0.0 mm 0.0mm
08:32 18.7 °C 17.2 °C 1016.0 hPa NNE 2.6 km/h 6.1 km/h 91% 0.0 mm 0.0mm
08:40 18.6 °C 16.9 °C 1016.2 hPa NE 2.6 km/h 7.2 km/h 90% 0.0 mm 0.0mm
08:42 18.6 °C 16.9 °C 1016.3 hPa NE 3.5 km/h 7.2 km/h 90% 0.0 mm 0.0mm
08:46 18.6 °C 16.9 °C 1016.3 hPa NE 3.5 km/h 7.2 km/h 90% 0.0 mm 0.0mm
09:02 18.9 °C 17.1 °C 1016.6 hPa WSW 2.6 km/h 6.1 km/h 89% 0.0 mm 0.0mm
09:10 19.1 °C 16.9 °C 1016.5 hPa NW 2.6 km/h 6.1 km/h 87% 0.0 mm 0.0mm
09:20 19.1 °C 16.6 °C 1016.7 hPa WNW 2.6 km/h 8.7 km/h 85% 0.0 mm 0.0mm
09:22 19.0 °C 16.4 °C 1016.8 hPa WNW 2.6 km/h 8.7 km/h 85% 0.0 mm 0.0mm
09:30 18.8 °C 16.4 °C 1016.8 hPa West 2.6 km/h 7.2 km/h 86% 0.0 mm 0.0mm
09:34 18.9 °C 16.7 °C 1016.7 hPa NW 2.6 km/h 7.2 km/h 87% 0.0 mm 0.0mm
09:40 19.1 °C 16.6 °C 1016.7 hPa NW 2.6 km/h 6.1 km/h 85% 0.0 mm 0.0mm
09:42 19.1 °C 16.6 °C 1016.5 hPa NW 2.6 km/h 6.1 km/h 85% 0.0 mm 0.0mm
09:48 19.4 °C 16.8 °C 1016.7 hPa WNW 2.6 km/h 6.1 km/h 85% 0.0 mm 0.0mm
09:54 19.5 °C 16.9 °C 1016.8 hPa WNW 2.6 km/h 6.1 km/h 85% 0.0 mm 0.0mm
10:00 19.4 °C 16.7 °C 1016.8 hPa NNW 2.6 km/h 7.2 km/h 84% 0.0 mm 0.0mm
10:04 19.4 °C 16.7 °C 1016.7 hPa North 2.6 km/h 7.2 km/h 84% 0.0 mm 0.0mm
10:06 19.5 °C 16.7 °C 1016.6 hPa North 2.6 km/h 6.1 km/h 84% 0.0 mm 0.0mm
10:14 19.8 °C 16.8 °C 1016.6 hPa North 1.1 km/h 7.2 km/h 83% 0.0 mm 0.0mm
10:20 20.3 °C 17.2 °C 1016.5 hPa NW 1.1 km/h 7.2 km/h 82% 0.0 mm 0.0mm
10:24 20.4 °C 17.1 °C 1016.7 hPa NNW 2.6 km/h 7.2 km/h 81% 0.0 mm 0.0mm
10:30 20.4 °C 16.8 °C 1016.7 hPa North 3.5 km/h 7.2 km/h 80% 0.0 mm 0.0mm
10:34 20.2 °C 16.4 °C 1016.4 hPa North 2.6 km/h 8.7 km/h 79% 0.0 mm 0.0mm
10:40 20.5 °C 16.9 °C 1016.4 hPa North 2.6 km/h 8.7 km/h 80% 0.0 mm 0.0mm
10:42 20.4 °C 16.8 °C 1016.2 hPa NNE 2.6 km/h 7.2 km/h 80% 0.0 mm 0.0mm
10:50 20.3 °C 16.8 °C 1016.5 hPa NE 3.5 km/h 11.1 km/h 80% 0.0 mm 0.0mm
10:54 20.1 °C 16.6 °C 1016.4 hPa ENE 3.5 km/h 11.1 km/h 80% 0.0 mm 0.0mm
10:56 20.0 °C 16.4 °C 1016.3 hPa NE 2.6 km/h 11.1 km/h 80% 0.0 mm 0.0mm
11:02 20.0 °C 16.7 °C 1016.1 hPa NE 3.5 km/h 9.7 km/h 81% 0.0 mm 0.0mm
11:08 21.3 °C 17.7 °C 1016.4 hPa NE 6.1 km/h 11.1 km/h 80% 0.0 mm 0.0mm
11:20 21.8 °C 17.0 °C 1016.7 hPa NNE 3.5 km/h 8.7 km/h 74% 0.0 mm 0.0mm
11:30 21.1 °C 16.3 °C 1016.6 hPa NW 2.6 km/h 7.2 km/h 74% 0.0 mm 0.0mm
11:34 20.7 °C 16.3 °C 1016.5 hPa NNW 2.6 km/h 7.2 km/h 76% 0.0 mm 0.0mm
11:36 20.6 °C 16.4 °C 1016.5 hPa NNW 3.5 km/h 7.2 km/h 77% 0.0 mm 0.0mm
11:48 19.9 °C 16.6 °C 1016.4 hPa ENE 5.0 km/h 8.7 km/h 81% 0.0 mm 0.0mm
11:54 19.5 °C 16.3 °C 1016.2 hPa NE 3.5 km/h 9.7 km/h 82% 0.0 mm 0.0mm
11:58 19.9 °C 16.9 °C 1016.1 hPa NNE 3.5 km/h 9.7 km/h 83% 0.0 mm 0.0mm
12:10 21.5 °C 17.5 °C 1016.0 hPa NNE 3.5 km/h 9.7 km/h 78% 0.0 mm 0.0mm
12:14 21.8 °C 17.2 °C 1016.0 hPa NE 3.5 km/h 9.7 km/h 75% 0.0 mm 0.0mm
12:20 21.5 °C 16.7 °C 1015.8 hPa NE 3.5 km/h 9.7 km/h 74% 0.0 mm 0.0mm
12:24 21.2 °C 16.4 °C 1015.9 hPa NE 6.1 km/h 11.1 km/h 74% 0.0 mm 0.0mm
12:30 21.0 °C 16.6 °C 1015.6 hPa NNE 3.5 km/h 11.1 km/h 76% 0.0 mm 0.0mm
12:34 20.8 °C 16.6 °C 1015.9 hPa NNE 2.6 km/h 11.1 km/h 77% 0.0 mm 0.0mm
12:40 20.5 °C 16.6 °C 1015.9 hPa NNE 1.1 km/h 11.1 km/h 78% 0.0 mm 0.0mm
12:50 20.5 °C 16.1 °C 1015.8 hPa WNW 5.0 km/h 11.1 km/h 76% 0.0 mm 0.0mm
12:52 20.3 °C 16.2 °C 1015.8 hPa NW 5.0 km/h 11.1 km/h 77% 0.0 mm 0.0mm
13:00 20.0 °C 16.3 °C 1015.8 hPa North 2.6 km/h 8.7 km/h 79% 0.0 mm 0.0mm
13:10 19.7 °C 16.4 °C 1016.0 hPa NE 3.5 km/h 8.7 km/h 81% 0.0 mm 0.0mm
13:12 19.6 °C 16.3 °C 1015.9 hPa ENE 3.5 km/h 8.7 km/h 81% 0.0 mm 0.0mm
13:18 19.7 °C 16.6 °C 1015.8 hPa NE 2.6 km/h 9.7 km/h 82% 0.0 mm 0.0mm
13:24 19.7 °C 16.6 °C 1015.7 hPa ENE 2.6 km/h 9.7 km/h 82% 0.0 mm 0.0mm
13:30 20.0 °C 16.7 °C 1015.8 hPa NNE 3.5 km/h 9.7 km/h 81% 0.0 mm 0.0mm
13:32 20.1 °C 16.8 °C 1015.7 hPa NNE 2.6 km/h 12.2 km/h 81% 0.0 mm 0.0mm
13:40 20.7 °C 17.2 °C 1015.6 hPa NW 3.5 km/h 12.2 km/h 80% 0.0 mm 0.0mm
13:44 20.7 °C 16.7 °C 1015.6 hPa NNE 3.5 km/h 9.7 km/h 78% 0.0 mm 0.0mm
13:50 20.8 °C 16.8 °C 1015.5 hPa NE 6.1 km/h 8.7 km/h 78% 0.0 mm 0.0mm
13:54 20.7 °C 16.7 °C 1015.5 hPa NE 2.6 km/h 8.7 km/h 78% 0.0 mm 0.0mm
13:58 20.8 °C 17.1 °C 1015.4 hPa NNE 2.6 km/h 8.7 km/h 79% 0.0 mm 0.0mm
14:04 20.9 °C 16.9 °C 1015.4 hPa NE 6.1 km/h 12.2 km/h 78% 0.0 mm 0.0mm
14:08 21.1 °C 16.9 °C 1015.2 hPa NE 3.5 km/h 12.2 km/h 77% 0.0 mm 0.0mm
14:14 21.5 °C 17.1 °C 1015.1 hPa NNE 5.0 km/h 12.2 km/h 76% 0.0 mm 0.0mm
14:20 21.8 °C 17.2 °C 1015.2 hPa NE 3.5 km/h 9.7 km/h 75% 0.0 mm 0.0mm
14:24 21.5 °C 16.4 °C 1015.1 hPa NNE 3.5 km/h 9.7 km/h 73% 0.0 mm 0.0mm
14:30 21.1 °C 16.3 °C 1015.2 hPa ENE 5.0 km/h 9.7 km/h 74% 0.0 mm 0.0mm
14:34 20.8 °C 16.6 °C 1015.1 hPa NNE 6.1 km/h 9.7 km/h 77% 0.0 mm 0.0mm
14:40 20.6 °C 16.7 °C 1015.1 hPa NNW 3.5 km/h 13.4 km/h 78% 0.0 mm 0.0mm
14:50 20.3 °C 16.6 °C 1015.2 hPa NNE 3.5 km/h 9.7 km/h 79% 0.0 mm 0.0mm
14:54 20.3 °C 16.6 °C 1015.0 hPa NNE 3.5 km/h 11.1 km/h 79% 0.0 mm 0.0mm
15:00 20.2 °C 16.7 °C 1015.0 hPa NE 5.0 km/h 12.2 km/h 80% 0.0 mm 0.0mm
15:04 20.1 °C 16.6 °C 1014.8 hPa ENE 6.1 km/h 12.2 km/h 80% 0.0 mm 0.0mm
15:10 20.4 °C 17.1 °C 1014.6 hPa NE 3.5 km/h 12.2 km/h 81% 0.0 mm 0.0mm
15:18 20.8 °C 17.2 °C 1014.8 hPa NNW 3.5 km/h 11.1 km/h 80% 0.0 mm 0.0mm
15:30 21.5 °C 16.9 °C 1014.7 hPa ESE 6.1 km/h 14.8 km/h 75% 0.0 mm 0.0mm
15:34 21.4 °C 16.6 °C 1014.8 hPa WNW 7.2 km/h 14.8 km/h 74% 0.0 mm 0.0mm
15:40 20.7 °C 16.6 °C 1014.8 hPa WNW 6.1 km/h 12.2 km/h 77% 0.0 mm 0.0mm
15:42 20.6 °C 16.4 °C 1014.8 hPa WNW 3.5 km/h 12.2 km/h 77% 0.0 mm 0.0mm
15:48 20.3 °C 16.6 °C 1014.7 hPa NNE 6.1 km/h 11.1 km/h 79% 0.0 mm 0.0mm
16:00 19.7 °C 16.6 °C 1014.9 hPa NW 6.1 km/h 13.4 km/h 82% 0.0 mm 0.0mm
16:02 19.6 °C 16.4 °C 1014.9 hPa NW 5.0 km/h 13.4 km/h 82% 0.0 mm 0.0mm
16:10 19.7 °C 16.7 °C 1014.7 hPa NE 8.7 km/h 19.5 km/h 83% 0.0 mm 0.0mm
16:20 19.9 °C 16.9 °C 1014.5 hPa NNW 5.0 km/h 11.1 km/h 83% 0.0 mm 0.0mm
16:34 19.9 °C 16.7 °C 1014.8 hPa NNW 2.6 km/h 13.4 km/h 82% 0.0 mm 0.0mm
16:38 19.8 °C 16.7 °C 1014.7 hPa North 5.0 km/h 13.4 km/h 82% 0.0 mm 0.0mm
16:42 19.7 °C 16.7 °C 1014.8 hPa North 6.1 km/h 13.4 km/h 83% 0.0 mm 0.0mm
16:50 19.7 °C 16.7 °C 1014.5 hPa NNE 3.5 km/h 12.2 km/h 83% 0.0 mm 0.0mm
16:54 19.8 °C 16.8 °C 1014.5 hPa NNW 3.5 km/h 12.2 km/h 83% 0.0 mm 0.0mm
17:00 20.0 °C 16.8 °C 1014.4 hPa North 5.0 km/h 9.7 km/h 82% 0.0 mm 0.0mm
17:04 20.0 °C 16.8 °C 1014.2 hPa North 5.0 km/h 9.7 km/h 82% 0.0 mm 0.0mm
17:08 20.1 °C 16.9 °C 1014.4 hPa NNW 5.0 km/h 9.7 km/h 82% 0.0 mm 0.0mm
17:14 20.0 °C 16.8 °C 1014.3 hPa NNW 2.6 km/h 11.1 km/h 82% 0.0 mm 0.0mm
17:20 19.8 °C 16.7 °C 1014.4 hPa WNW 3.5 km/h 11.1 km/h 82% 0.0 mm 0.0mm
17:24 19.7 °C 16.7 °C 1014.2 hPa SSE 3.5 km/h 9.7 km/h 83% 0.0 mm 0.0mm
17:34 19.3 °C 16.3 °C 1014.2 hPa North 2.6 km/h 9.7 km/h 83% 0.0 mm 0.0mm
17:38 19.3 °C 16.3 °C 1014.3 hPa NNE 3.5 km/h 9.7 km/h 83% 0.0 mm 0.0mm
17:44 19.1 °C 16.3 °C 1014.2 hPa NNE 2.6 km/h 11.1 km/h 84% 0.0 mm 0.0mm
17:50 19.0 °C 16.2 °C 1014.3 hPa NNW 3.5 km/h 11.1 km/h 84% 0.0 mm 0.0mm
17:54 18.8 °C 16.4 °C 1014.3 hPa NNW 2.6 km/h 11.1 km/h 86% 0.0 mm 0.0mm
18:00 18.7 °C 16.3 °C 1014.4 hPa North 3.5 km/h 8.7 km/h 86% 0.0 mm 0.0mm
18:04 18.6 °C 16.4 °C 1014.4 hPa NNW 1.1 km/h 8.7 km/h 87% 0.0 mm 0.0mm
18:10 18.5 °C 16.3 °C 1014.4 hPa WNW 5.0 km/h 8.7 km/h 87% 0.0 mm 0.0mm
18:20 18.3 °C 16.3 °C 1014.2 hPa NNW 2.6 km/h 11.1 km/h 88% 0.0 mm 0.0mm
18:24 18.3 °C 16.3 °C 1014.2 hPa NW 1.1 km/h 6.1 km/h 88% 0.0 mm 0.0mm
18:30 18.3 °C 16.4 °C 1014.3 hPa NW 5.0 km/h 11.1 km/h 89% 0.0 mm 0.0mm
18:32 18.3 °C 16.4 °C 1014.2 hPa NW 2.6 km/h 11.1 km/h 89% 0.0 mm 0.0mm
18:40 18.2 °C 16.4 °C 1014.5 hPa WNW 2.6 km/h 11.1 km/h 89% 0.0 mm 0.0mm
18:50 18.2 °C 16.6 °C 1014.2 hPa NW 5.0 km/h 8.7 km/h 90% 0.0 mm 0.0mm
18:52 18.2 °C 16.6 °C 1014.4 hPa NW 3.5 km/h 8.7 km/h 90% 0.0 mm 0.0mm
19:04 18.0 °C 16.3 °C 1014.4 hPa NW 5.0 km/h 8.7 km/h 90% 0.0 mm 0.0mm
19:10 18.0 °C 16.3 °C 1014.5 hPa West 2.6 km/h 9.7 km/h 90% 0.0 mm 0.0mm
19:14 18.0 °C 16.5 °C 1014.5 hPa West 2.6 km/h 9.7 km/h 91% 0.0 mm 0.0mm
19:16 18.0 °C 16.5 °C 1014.5 hPa WNW 2.6 km/h 9.7 km/h 91% 0.0 mm 0.0mm
19:24 18.0 °C 16.5 °C 1014.5 hPa NW 1.1 km/h 9.7 km/h 91% 0.0 mm 0.0mm
19:30 18.0 °C 16.5 °C 1014.6 hPa NW 2.6 km/h 6.1 km/h 91% 0.0 mm 0.0mm
19:40 18.0 °C 16.5 °C 1014.8 hPa NW 2.6 km/h 7.2 km/h 91% 0.0 mm 0.0mm
19:44 18.0 °C 16.5 °C 1014.6 hPa West 2.6 km/h 11.1 km/h 91% 0.0 mm 0.0mm
19:50 17.9 °C 16.2 °C 1014.6 hPa NW 2.6 km/h 11.1 km/h 90% 0.0 mm 0.0mm
19:52 17.9 °C 16.2 °C 1014.7 hPa NW 1.1 km/h 11.1 km/h 90% 0.0 mm 0.0mm
20:00 17.7 °C 16.1 °C 1014.7 hPa North 1.1 km/h 7.2 km/h 90% 0.0 mm 0.0mm
20:02 17.7 °C 16.2 °C 1014.7 hPa WSW 2.6 km/h 7.2 km/h 91% 0.0 mm 0.0mm
20:10 17.7 °C 16.2 °C 1014.9 hPa WNW 1.1 km/h 6.1 km/h 91% 0.0 mm 0.0mm
20:14 17.7 °C 16.2 °C 1014.9 hPa West 1.1 km/h 6.1 km/h 91% 0.0 mm 0.0mm
20:20 17.7 °C 16.2 °C 1014.9 hPa West 1.1 km/h 6.1 km/h 91% 0.0 mm 0.0mm
20:24 17.6 °C 16.1 °C 1014.8 hPa WNW 2.6 km/h 6.1 km/h 91% 0.0 mm 0.0mm
20:30 17.6 °C 16.1 °C 1014.9 hPa North 1.1 km/h 6.1 km/h 91% 0.0 mm 0.0mm
20:34 17.6 °C 16.3 °C 1014.9 hPa WNW 2.6 km/h 8.7 km/h 92% 0.0 mm 0.0mm
20:38 17.6 °C 16.3 °C 1014.9 hPa Calm   8.7 km/h 92% 0.0 mm 0.0mm
20:50 17.6 °C 16.3 °C 1015.0 hPa WNW 5.0 km/h 7.2 km/h 92% 0.0 mm 0.0mm
20:54 17.6 °C 16.3 °C 1015.3 hPa WNW 1.1 km/h 7.2 km/h 92% 0.0 mm 0.0mm
21:00 17.6 °C 16.3 °C 1015.1 hPa WNW 1.1 km/h 6.1 km/h 92% 0.0 mm 0.0mm
21:04 17.6 °C 16.3 °C 1015.1 hPa WNW 1.1 km/h 7.2 km/h 92% 0.0 mm 0.0mm
21:10 17.6 °C 16.3 °C 1015.2 hPa West 1.1 km/h 7.2 km/h 92% 0.0 mm 0.0mm
21:14 17.6 °C 16.3 °C 1015.2 hPa West 2.6 km/h 5.0 km/h 92% 0.0 mm 0.0mm
21:18 17.6 °C 16.3 °C 1015.1 hPa Calm   6.1 km/h 92% 0.0 mm 0.0mm
21:22 17.6 °C 16.3 °C 1015.1 hPa West 1.1 km/h 6.1 km/h 92% 0.0 mm 0.0mm
21:30 17.6 °C 16.3 °C 1015.3 hPa West 2.6 km/h 7.2 km/h 92% 0.0 mm 0.0mm
21:34 17.6 °C 16.3 °C 1015.2 hPa West 1.1 km/h 5.0 km/h 92% 0.0 mm 0.0mm
21:36 17.6 °C 16.3 °C 1015.3 hPa West 3.5 km/h 6.1 km/h 92% 0.0 mm 0.0mm
21:50 17.6 °C 16.3 °C 1015.5 hPa Calm   5.0 km/h 92% 0.0 mm 0.0mm
21:54 17.7 °C 16.4 °C 1015.6 hPa NW 2.6 km/h 6.1 km/h 92% 0.0 mm 0.0mm
21:56 17.7 °C 16.4 °C 1015.6 hPa NNW 1.1 km/h 7.2 km/h 92% 0.0 mm 0.0mm
22:04 17.7 °C 16.4 °C 1015.7 hPa NNW 1.1 km/h 7.2 km/h 92% 0.0 mm 0.0mm
22:06 17.7 °C 16.4 °C 1015.6 hPa NNW 2.6 km/h 7.2 km/h 92% 0.0 mm 0.0mm
22:14 17.7 °C 16.4 °C 1015.5 hPa NNE 1.1 km/h 7.2 km/h 92% 0.0 mm 0.0mm
22:18 17.7 °C 16.4 °C 1015.7 hPa Calm   7.2 km/h 92% 0.0 mm 0.0mm
22:24 17.7 °C 16.4 °C 1015.6 hPa NNW 1.1 km/h 6.1 km/h 92% 0.0 mm 0.0mm
22:30 17.7 °C 16.4 °C 1015.4 hPa NE 1.1 km/h 5.0 km/h 92% 0.0 mm 0.0mm
22:36 17.6 °C 16.3 °C 1015.3 hPa NNE 2.6 km/h 6.1 km/h 92% 0.0 mm 0.0mm
22:42 17.6 °C 16.3 °C 1015.4 hPa North 2.6 km/h 6.1 km/h 92% 0.0 mm 0.0mm
22:50 17.6 °C 16.3 °C 1015.4 hPa North 1.1 km/h 3.5 km/h 92% 0.0 mm 0.0mm
22:52 17.6 °C 16.3 °C 1015.5 hPa NNW 2.6 km/h 6.1 km/h 92% 0.0 mm 0.0mm
23:00 17.6 °C 16.3 °C 1015.4 hPa NNW 1.1 km/h 6.1 km/h 92% 0.0 mm 0.0mm
23:04 17.6 °C 16.3 °C 1015.3 hPa NNW 1.1 km/h 6.1 km/h 92% 0.0 mm 0.0mm
23:10 17.6 °C 16.3 °C 1015.3 hPa North 1.1 km/h 6.1 km/h 92% 0.0 mm 0.0mm
23:14 17.6 °C 16.3 °C 1015.2 hPa North 1.1 km/h 5.0 km/h 92% 0.0 mm 0.0mm
23:24 17.6 °C 16.3 °C 1015.1 hPa NNW 2.6 km/h 5.0 km/h 92% 0.0 mm 0.0mm
23:30 17.6 °C 16.3 °C 1015.3 hPa NW 2.6 km/h 6.1 km/h 92% 0.0 mm 0.0mm
23:34 17.6 °C 16.3 °C 1015.2 hPa NW 1.1 km/h 6.1 km/h 92% 0.0 mm 0.0mm
23:40 17.6 °C 16.3 °C 1015.1 hPa NW 2.6 km/h 5.0 km/h 92% 0.0 mm 0.0mm
23:42 17.6 °C 16.3 °C 1015.2 hPa NW 1.1 km/h 5.0 km/h 92% 0.0 mm 0.0mm
23:50 17.6 °C 16.3 °C 1015.2 hPa WNW 1.1 km/h 6.1 km/h 92% 0.0 mm 0.0mm
23:52 17.6 °C 16.3 °C 1015.3 hPa WNW 1.1 km/h 6.1 km/h 92% 0.0 mm 0.0mm
23:58 17.5 °C 16.2 °C 1015.3 hPa Calm   6.1 km/h 92% 0.0 mm 0.0mm
Opotiki Town Weather
Compliments of Weather Underground - 2 mb

NZ Local Weather Forum      Cumulus Top Weather Sites      New Zealand Top40 Weather Station Sites      Flag Counter